Tracking 17557 objects as of 8-February-2016
HD Live streaming from Space Station
objects crossing your sky now

COSMOS 970 DEB

Track COSMOS 970 DEB now!
10-day predictions


NORAD ID: 12862
Int'l Code: 1977-121AQ
Perigee: 769.6 km
Apogee: 1,001.7 km
Inclination: 66.2 °
Period: 102.5 minutes
Semi major axis: 7256 km
RCS: 0.0129 m2 (small)
Launch date: December 21, 1977
Source: Commonwealth of Independent States (former USSR) (CIS)
Launch site: TYURATAM MISSILE AND SPACE COMPLEX (TTMTR)

Note: This is SATELLITE DEBRIS
Your satellite tracking list
Your tracking list is empty





NASA's NSSDC Master Catalog

Two Line Element Set (TLE):
1 12862U 77121AQ  16037.57515271  .00000932  00000-0  56827-3 0  9992
2 12862  66.2102  98.7711 0159931 291.2290 218.9959 14.0443978834529
Source of the keplerian elements: AFSPC

N2YO: 535